EW3219 Weather Reports


Display with metric or nautical units.
time (UTC)temp
F
wind
direction
speed
MPH
gust
MPH
rain 1hr
in
rain 24hr
in
rain mn
in
humidity
%
barometer
mb
20260507120013 57 0.0 0.0 0.00 0.00 0.00 89 1015.9
20260507114509 57 0.0 0.0 0.00 0.00 0.00 88 1015.7
20260507113009 58 0.0 0.0 0.00 0.00 0.00 88 1015.9
20260507111600 58 0.0 0.0 0.00 0.00 0.00 89 1015.8
20260507110057 59 0.0 0.0 0.00 0.00 0.00 89 1015.8
20260507104556 59 0.0 0.0 0.00 0.00 0.00 88 1016.0
20260507103048 59 0.0 0.0 0.00 0.00 0.00 88 1016.2
20260507101543 59 0.0 0.0 0.00 0.00 0.00 88 1016.2
20260507100039 59 0.0 0.0 0.00 0.00 0.00 88 1016.2
20260507094534 60 0.0 0.0 0.00 0.00 0.00 88 1016.2
20260507093036 60 0.0 0.0 0.00 0.00 0.00 88 1016.4
20260507091536 60 0.0 0.0 0.00 0.00 0.00 88 1016.6
20260507090020 60 0.0 0.0 0.00 0.00 0.00 88 1016.7
20260507084520 60 0.0 0.0 0.00 0.00 0.00 88 1016.8
20260507083012 60 0.0 0.0 0.00 0.00 0.00 87 1017.1
20260507081507 61 0.0 0.0 0.00 0.00 0.00 87 1017.2
20260507080003 61 0.0 0.0 0.00 0.00 0.00 88 1017.2
20260507074612 61 0.0 0.0 0.00 0.00 0.00 87 1017.2
20260507073055 61 0.0 0.0 0.00 0.00 0.00 87 1017.2
20260507071552 62 0.0 0.0 0.00 0.00 0.00 87 1017.3
20260507070104 62 0.0 0.0 0.00 0.00 0.00 87 1017.3
20260507064541 62 0.0 0.0 0.00 0.00 0.00 86 1017.5
20260507063052 62 0.0 0.0 0.00 0.00 0.00 87 1017.5
20260507061534 62 0.0 0.0 0.00 0.00 0.00 87 1017.4
20260507060042 62 0.0 0.0 0.00 0.00 0.00 86 1017.4
20260507054523 62 0.0 0.0 0.00 0.00 0.00 86 1017.5
20260507053020 62 0.0 0.0 0.00 0.00 0.00 85 1017.6
20260507051515 62 0.0 0.0 0.00 0.00 0.00 84 1017.6
20260507050011 63 0.0 0.0 0.00 0.00 0.00 83 1017.5
20260507044506 63 0.0 0.0 0.00 0.00 0.00 82 1017.4
20260507043002 63 0.0 0.0 0.00 0.00 0.00 82 1017.2
20260507041558 63 0.0 0.0 0.00 0.00 0.00 82 1017.4
20260507040055 63 0.0 0.0 0.00 0.00 0.00 82 1017.2
20260507034549 63 0.0 0.0 0.00 0.00 0.00 81 1017.1
20260507033046 63 0.0 0.0 0.00 0.00 0.00 82 1016.9
20260507031540 64 0.0 0.0 0.00 0.00 0.00 82 1016.8
20260507030036 64 0.0 0.0 0.00 0.00 0.00 82 1016.6
20260507024532 64 0.0 0.0 0.00 0.00 0.00 82 1016.3
20260507023027 65 0.0 0.0 0.00 0.00 0.00 82 1016.3
20260507021523 66 0.0 0.0 0.00 0.00 0.00 79 1016.3
20260507020029 66 0.0 0.0 0.00 0.00 0.00 78 1016.2
20260507014514 66 0.0 0.0 0.00 0.00 0.00 78 1016.1
20260507013018 67 0.0 0.0 0.00 0.00 0.00 77 1016.1
20260507011508 67 0.0 0.0 0.00 0.00 0.00 77 1016.3
20260507010002 67 0.0 0.0 0.00 0.00 0.00 75 1016.1
20260507004557 67 0.0 0.0 0.00 0.00 0.00 74 1016.1
20260507003053 67 0.0 0.0 0.00 0.00 0.00 73 1016.0
20260507001552 67 0.0 0.0 0.00 0.00 0.00 74 1016.0
20260507000044 67 0.0 0.0 0.00 0.00 0.00 75 1015.8
20260506234541 67 0.0 0.0 0.00 0.00 0.00 74 1015.9
20260506233053 67 0.0 0.0 0.00 0.00 0.00 74 1015.8
20260506231533 67 0.0 0.0 0.00 0.00 0.00 74 1016.0
20260506230028 67 0.0 0.0 0.00 0.00 0.00 72 1016.1
20260506224522 67 0.0 0.0 0.00 0.00 0.00 72 1016.1
20260506223018 68 0.0 0.0 0.00 0.00 0.00 71 1016.2
20260506221514 67 0.0 0.0 0.00 0.00 0.00 71 1016.2
20260506220018 68 0.0 0.0 0.00 0.00 0.00 70 1016.4
20260506214507 69 0.0 0.0 0.00 0.00 0.00 71 1016.6
20260506213100 68 0.0 0.0 0.00 0.00 0.00 71 1016.7
20260506211609 68 0.0 0.0 0.00 0.00 0.00 71 1016.8
20260506210052 68 0.0 0.0 0.00 0.00 0.00 71 1016.9
20260506204547 68 0.0 0.0 0.00 0.00 0.00 70 1016.9
20260506203043 68 0.0 0.0 0.00 0.00 0.00 72 1016.9
20260506201540 68 0.0 0.0 0.00 0.00 0.00 70 1017.0
20260506200041 69 0.0 0.0 0.00 0.00 0.00 70 1017.0
20260506194530 69 0.0 0.0 0.00 0.00 0.00 70 1017.2
20260506193028 68 0.0 0.0 0.00 0.00 0.00 71 1017.3
20260506191521 68 0.0 0.0 0.00 0.00 0.00 68 1017.4
20260506190017 68 0.0 0.0 0.00 0.00 0.00 73 1017.4
20260506184512 68 0.0 0.0 0.00 0.00 0.00 71 1017.5
20260506183009 68 0.0 0.0 0.00 0.00 0.00 71 1017.7
20260506181505 68 0.0 0.0 0.00 0.00 0.00 71 1018.1
20260506180100 67 0.0 0.0 0.00 0.00 0.00 71 1018.1
20260506174555 67 0.0 0.0 0.00 0.00 0.00 71 1018.2
20260506173104 66 0.0 0.0 0.00 0.00 0.00 71 1018.2
20260506171552 66 0.0 0.0 0.00 0.00 0.00 70 1018.3
20260506170043 65 0.0 0.0 0.00 0.00 0.00 71 1018.3
20260506164551 65 0.0 0.0 0.00 0.00 0.00 71 1018.3
20260506163035 65 0.0 0.0 0.00 0.00 0.00 70 1018.2
20260506161531 64 0.0 0.0 0.00 0.00 0.00 71 1018.2
20260506160024 64 0.0 0.0 0.00 0.00 0.00 72 1018.3
20260506154520 64 0.0 0.0 0.00 0.00 0.00 72 1018.4
20260506153016 63 0.0 0.0 0.00 0.00 0.00 73 1018.5
20260506151512 62 0.0 0.0 0.00 0.00 0.00 74 1018.6
20260506150007 61 0.0 0.0 0.00 0.00 0.00 74 1018.4
20260506144503 60 0.0 0.0 0.00 0.00 0.00 76 1018.3
20260506143059 59 0.0 0.0 0.00 0.00 0.00 78 1018.5
20260506141610 59 0.0 0.0 0.00 0.00 0.00 79 1018.5
20260506140050 57 0.0 0.0 0.00 0.00 0.00 82 1018.3
20260506134546 56 0.0 0.0 0.00 0.00 0.00 82 1018.2
20260506133041 56 0.0 0.0 0.00 0.00 0.00 82 1018.1
20260506131539 56 0.0 0.0 0.00 0.00 0.00 82 1018.0
20260506130032 56 0.0 0.0 0.00 0.00 0.00 82 1017.7
20260506124528 57 0.0 0.0 0.00 0.00 0.00 82 1017.5
20260506123031 57 0.0 0.0 0.00 0.00 0.00 82 1017.6
20260506121520 57 0.0 0.0 0.00 0.00 0.00 82 1017.6